Date String (YYYY-MM-DD hh:mm:ss) UTC,Instrument flags,absolute air pressure of the measurement (hPa),sample flow rate (lpm),inlet stack bypass flow (lpm),air temperature of the measurement (°C),ambient temperature measured by the external sensor (°C),aerosol sample conditioner tube jacket temperature (°C),OPC LED temperature (°C),internal box temperature (°C),relative humidity of the measurement (%),span deviation,mass concentration of particles derived from Lorenz-Mie calculation of OPC scattering (μg/m³),mass concentration of particles derived from Lorenz-Mie calculation of OPC scattering (μg/m³),mass concentration of particles derived from Lorenz-Mie calculation of OPC scattering (μg/m³)
DateTimeUTC,F1_M11,P_M11,Q1_M11,Q2_M11,T1_M11,T2_M11,T3_M11,T4_M11,T5_M11,U1_M11,ZSPAN_M11,X2_M11,X0_M11,X1_M11
2023-07-08 01:00:00,SystemResetWarning,0833.4,5.01,000.00,029.2,025.3,000.0,037.6,030.4,28.5,-000.2,0005.13,0009.33,0004.56
2023-07-08 01:01:00,SystemResetWarning,0833.5,5.00,000.00,029.1,025.6,000.0,037.6,030.4,28.1,-000.5,0005.17,0009.51,0004.57
2023-07-08 01:02:00,SystemResetWarning,0833.4,5.00,000.00,029.1,026.0,000.0,037.6,030.4,28.3,-000.4,0005.15,0009.55,0004.57
2023-07-08 01:03:00,SystemResetWarning,0833.4,5.00,000.00,029.1,026.4,000.0,037.6,030.5,28.7,-000.7,0005.13,0009.57,0004.58
2023-07-08 01:04:00,SystemResetWarning,0833.4,5.00,000.00,029.1,026.8,000.0,037.6,030.6,28.0,-000.7,0005.14,0009.65,0004.59
2023-07-08 01:05:00,SystemResetWarning,0833.3,5.00,000.00,029.1,027.1,000.0,037.6,030.7,28.5,-000.3,0005.12,0009.66,0004.58
2023-07-08 01:06:00,SystemResetWarning,0833.3,4.99,000.00,029.1,027.3,000.0,037.7,030.7,26.9,0000.1,0005.08,0009.25,0004.57
2023-07-08 01:07:00,SystemResetWarning,0833.2,5.00,000.00,029.2,027.5,000.0,037.7,030.7,26.3,0000.0,0005.08,0009.04,0004.57
2023-07-08 01:08:00,SystemResetWarning,0833.2,5.01,000.00,029.2,027.7,000.0,037.7,030.8,27.4,-000.1,0005.10,0008.84,0004.58
2023-07-08 01:09:00,SystemResetWarning,0833.3,5.01,000.00,029.2,027.8,000.0,037.7,030.8,27.6,0000.6,0005.11,0008.87,0004.60
2023-07-08 01:10:00,SystemResetWarning,0833.4,4.98,000.00,029.3,027.9,000.0,037.7,030.9,27.2,0000.9,0005.11,0008.82,0004.62
2023-07-08 01:11:00,SystemResetWarning,0833.4,5.00,000.00,029.3,028.0,000.0,037.7,030.9,27.4,0000.1,0005.12,0008.79,0004.62
2023-07-08 01:12:00,SystemResetWarning,0833.4,5.00,000.00,029.3,028.1,000.0,037.7,030.9,27.2,-000.5,0005.11,0008.66,0004.62
2023-07-08 01:13:00,SystemResetWarning,0833.4,5.01,000.00,029.3,028.2,000.0,037.8,031.0,27.2,-001.0,0005.13,0008.65,0004.63
2023-07-08 01:14:00,SystemResetWarning,0833.3,5.00,000.00,029.4,028.3,000.0,037.8,031.0,27.4,-001.0,0005.13,0008.61,0004.64
2023-07-08 01:15:00,SystemResetWarning,0833.2,4.99,000.00,029.4,028.3,000.0,037.8,031.1,27.3,-001.4,0005.12,0008.49,0004.63
2023-07-08 01:16:00,SystemResetWarning,0833.2,5.00,000.00,029.4,028.1,000.0,037.8,031.1,26.9,-001.3,0005.10,0008.28,0004.62
2023-07-08 01:17:00,SystemResetWarning,0833.2,4.99,000.00,029.4,026.4,000.0,037.7,031.0,25.5,-001.5,0005.13,0008.15,0004.62
2023-07-08 01:18:00,SystemResetWarning,0833.2,5.00,000.00,029.4,025.3,000.0,037.6,030.8,25.6,-001.6,0005.14,0008.15,0004.61
2023-07-08 01:19:00,SystemResetWarning,0833.2,5.02,000.00,029.3,025.2,000.0,037.6,030.5,26.4,-001.3,0005.10,0008.09,0004.60
2023-07-08 01:20:00,SystemResetWarning,0833.2,5.00,000.00,029.1,025.6,000.0,037.6,030.4,28.4,-000.9,0005.09,0008.02,0004.59
2023-07-08 01:21:00,SystemResetWarning,0833.2,5.00,000.00,029.1,025.9,000.0,037.7,030.4,29.7,-001.1,0005.11,0008.06,0004.59
2023-07-08 01:22:00,SystemResetWarning,0833.2,5.00,000.00,029.1,026.3,000.0,037.7,030.5,29.9,-001.2,0005.10,0008.10,0004.57
2023-07-08 01:23:00,SystemResetWarning,0833.2,5.00,000.00,029.1,026.7,000.0,037.7,030.6,29.6,-000.7,0005.07,0008.07,0004.55
2023-07-08 01:24:00,SystemResetWarning,0833.2,5.00,000.00,029.1,027.0,000.0,037.7,030.6,28.8,0000.0,0005.05,0008.01,0004.53
2023-07-08 01:25:00,SystemResetWarning,0833.2,5.00,000.00,029.1,027.2,000.0,037.7,030.7,28.5,0000.6,0005.05,0007.95,0004.52
2023-07-08 01:26:00,SystemResetWarning,0833.2,5.00,000.00,029.2,027.4,000.0,037.7,030.7,28.3,0001.3,0005.01,0007.93,0004.52
2023-07-08 01:27:00,SystemResetWarning,0833.2,4.99,000.00,029.2,027.6,000.0,037.7,030.8,27.9,0001.3,0005.01,0008.03,0004.52
2023-07-08 01:28:00,SystemResetWarning,0833.1,4.99,000.00,029.2,027.7,000.0,037.7,030.8,27.9,0001.2,0004.99,0007.98,0004.52
2023-07-08 01:29:00,SystemResetWarning,0833.2,5.02,000.00,029.2,027.9,000.0,037.7,030.8,27.1,0001.1,0004.98,0007.96,0004.53
2023-07-08 01:30:00,SystemResetWarning,0833.1,5.00,000.00,029.3,028.0,000.0,037.7,030.9,26.2,0000.9,0005.00,0008.49,0004.53
2023-07-08 01:31:00,SystemResetWarning,0833.2,5.00,000.00,029.3,028.0,000.0,037.7,030.9,26.6,0000.4,0004.98,0008.70,0004.54
2023-07-08 01:32:00,SystemResetWarning,0833.2,5.00,000.00,029.3,028.1,000.0,037.8,030.9,27.1,0000.4,0004.97,0008.70,0004.54
2023-07-08 01:33:00,SystemResetWarning,0833.2,5.00,000.00,029.4,028.2,000.0,037.8,030.9,26.9,0000.9,0004.97,0008.63,0004.55
2023-07-08 01:34:00,SystemResetWarning,0833.2,5.00,000.00,029.4,028.2,000.0,037.8,031.0,27.9,0000.8,0004.98,0008.67,0004.55
2023-07-08 01:35:00,SystemResetWarning,0833.2,5.00,000.00,029.4,028.3,000.0,037.8,031.0,27.3,0001.1,0004.97,0008.66,0004.56
2023-07-08 01:36:00,SystemResetWarning,0833.2,5.00,000.00,029.5,028.3,000.0,037.9,031.1,28.4,0000.8,0004.95,0009.17,0004.55
2023-07-08 01:37:00,SystemResetWarning,0833.2,5.00,000.00,029.5,028.4,000.0,037.9,031.1,27.6,0000.7,0004.98,0009.30,0004.56
2023-07-08 01:38:00,SystemResetWarning,0833.2,4.98,000.00,029.5,027.0,000.0,037.8,031.0,27.4,0000.9,0004.97,0009.20,0004.55
2023-07-08 01:39:00,SystemResetWarning,0833.2,5.00,000.00,029.4,025.5,000.0,037.7,030.8,27.5,0000.9,0004.97,0009.20,0004.55
2023-07-08 01:40:00,SystemResetWarning,0833.2,5.00,000.00,029.3,025.1,000.0,037.6,030.5,27.8,0000.9,0004.98,0009.16,0004.56
2023-07-08 01:41:00,SystemResetWarning,0833.2,5.00,000.00,029.2,025.4,000.0,037.6,030.3,27.2,0000.7,0004.96,0008.69,0004.56
2023-07-08 01:42:00,SystemResetWarning,0833.3,5.02,000.00,029.1,025.8,000.0,037.7,030.4,26.3,0000.6,0004.96,0008.40,0004.56
2023-07-08 01:43:00,SystemResetWarning,0833.3,5.00,000.00,029.1,026.2,000.0,037.7,030.4,27.3,0000.8,0004.94,0008.34,0004.56
2023-07-08 01:44:00,SystemResetWarning,0833.3,4.99,000.00,029.1,026.5,000.0,037.7,030.5,27.1,0000.4,0004.93,0008.33,0004.56
2023-07-08 01:45:00,SystemResetWarning,0833.3,4.99,000.00,029.1,026.8,000.0,037.7,030.6,27.4,0000.6,0004.92,0008.25,0004.57
2023-07-08 01:46:00,SystemResetWarning,0833.3,5.01,000.00,029.1,027.1,000.0,037.7,030.6,27.4,0000.1,0004.93,0008.31,0004.57
2023-07-08 01:47:00,SystemResetWarning,0833.2,5.01,000.00,029.1,027.3,000.0,037.7,030.7,26.5,-000.2,0004.92,0007.81,0004.57
2023-07-08 01:48:00,SystemResetWarning,0833.2,4.98,000.00,029.2,027.5,000.0,037.7,030.7,25.3,-000.7,0004.93,0007.67,0004.57
2023-07-08 01:49:00,SystemResetWarning,0833.1,5.01,000.00,029.2,027.6,000.0,037.7,030.8,24.6,-001.1,0004.93,0007.65,0004.58
2023-07-08 01:50:00,SystemResetWarning,0833.1,5.02,000.00,029.2,027.8,000.0,037.7,030.8,25.2,-001.0,0004.91,0007.60,0004.58
2023-07-08 01:51:00,SystemResetWarning,0833.2,4.99,000.00,029.2,027.9,000.0,037.7,030.8,25.9,-000.4,0004.90,0007.59,0004.57
2023-07-08 01:52:00,SystemResetWarning,0833.1,4.99,000.00,029.3,028.0,000.0,037.7,030.9,27.0,0000.4,0004.91,0007.61,0004.57
2023-07-08 01:53:00,SystemResetWarning,0833.2,5.01,000.00,029.3,028.0,000.0,037.8,030.9,28.4,0000.7,0004.91,0007.80,0004.58
2023-07-08 01:54:00,SystemResetWarning,0833.2,5.01,000.00,029.3,028.1,000.0,037.8,030.9,29.8,0001.0,0004.95,0008.26,0004.58
2023-07-08 01:55:00,SystemResetWarning,0833.2,4.98,000.00,029.4,028.2,000.0,037.8,031.0,30.4,0001.4,0004.96,0008.29,0004.57
2023-07-08 01:56:00,SystemResetWarning,0833.3,5.00,000.00,029.4,028.2,000.0,037.8,031.0,30.7,0001.1,0004.97,0008.33,0004.57
2023-07-08 01:57:00,SystemResetWarning,0833.3,5.01,000.00,029.4,028.3,000.0,037.8,031.0,30.6,0001.0,0004.95,0008.25,0004.57
2023-07-08 01:58:00,SystemResetWarning,0833.3,5.01,000.00,029.5,028.3,000.0,037.9,031.1,30.8,0000.8,0004.98,0008.71,0004.58
2023-07-08 01:59:00,SystemResetWarning,0833.3,5.00,000.00,029.5,028.3,000.0,037.9,031.1,31.2,0000.8,0004.97,0008.71,0004.60
